User: anonymous   Login
Location: *
(46.4000°N, 12.6667°E)
Time: 17:52:22
(UTC+00:00)
Language:

Cosmos 1174 - Orbit

View from above orbital plane
View from above orbital plane
View from above satellite
View from above satellite

Ground track
Ground track

The orbit data is extracted from the following two-line orbital elements,

1 11765U 80030A   20185.21295809  .00000402  00000-0  30152-4 0  9994
2 11765  66.0856 127.3887 0547991 357.6617   2.1926 14.39748082 66849
Epoch (UTC): 03 July 2020 05:06:39
Eccentricity: 0.0547991
inclination: 66.0856°
perigee height: 368 km
apogee height: 1150 km
right ascension of ascending node: 127.3887°
argument of perigee: 357.6617°
revolutions per day: 14.39748082
mean anomaly at epoch: 2.1926°
orbit number at epoch: 6684

The dashed part of the orbit path shows where the satellite is in the earth's shadow,  

DLR